GW1348 Weather Reports


Display with metric or nautical units.
time (UTC)temp
F
wind
direction
speed
MPH
gust
MPH
rain 1hr
in
rain 24hr
in
rain mn
in
humidity
%
barometer
mb
20260506125531 44 98 2.0 4.0 0.00 0.02 0.00 70 1011.0
20260506125030 43 32 1.0 4.0 0.00 0.02 0.00 72 1010.9
20260506124541 43 131 0.0 3.0 0.00 0.02 0.00 72 1010.8
20260506124029 43 0 0.0 5.0 0.00 0.02 0.00 70 1010.9
20260506123531 43 148 1.0 5.0 0.00 0.02 0.00 70 1010.8
20260506123044 43 330 1.0 6.0 0.00 0.02 0.00 68 1010.9
20260506122530 44 182 1.0 6.0 0.00 0.02 0.00 66 1010.8
20260506122030 44 79 1.0 6.0 0.00 0.02 0.00 63 1010.8
20260506121553 44 311 1.0 3.0 0.00 0.02 0.00 58 1010.6
20260506121030 44 223 1.0 8.0 0.00 0.02 0.00 57 1010.7
20260506120530 44 23 2.0 8.0 0.00 0.02 0.00 56 1010.7
20260506120056 45 15 0.0 8.0 0.00 0.02 0.00 58 1010.7
20260506115531 45 75 3.0 8.0 0.00 0.03 0.00 56 1010.6
20260506115030 45 314 2.0 7.0 0.00 0.03 0.00 57 1010.6
20260506114547 44 331 3.0 7.0 0.00 0.03 0.00 56 1010.5
20260506114029 45 114 1.0 6.0 0.00 0.03 0.00 55 1010.5
20260506113529 45 53 2.0 6.0 0.00 0.03 0.00 55 1010.4
20260506113041 46 46 2.0 6.0 0.00 0.03 0.00 55 1010.4
20260506112530 46 118 1.0 8.0 0.00 0.03 0.00 54 1010.3
20260506112032 47 65 2.0 8.0 0.00 0.03 0.00 53 1010.3
20260506111547 46 131 4.0 8.0 0.00 0.03 0.00 55 1010.4
20260506111032 46 207 1.0 5.0 0.00 0.03 0.00 56 1010.3
20260506110532 44 176 1.0 9.0 0.00 0.03 0.00 57 1010.2
20260506110057 44 83 3.0 9.0 0.00 0.03 0.00 56 1010.3
20260506105534 44 0 2.0 8.0 0.00 0.03 0.00 53 1010.3
20260506105031 44 92 2.0 9.0 0.00 0.03 0.00 54 1010.3
20260506104557 43 68 3.0 9.0 0.00 0.03 0.00 56 1010.4
20260506104032 43 96 4.0 9.0 0.00 0.03 0.00 54 1010.3
20260506103530 43 153 1.0 8.0 0.00 0.03 0.00 54 1010.4
20260506103046 43 137 2.0 8.0 0.00 0.03 0.00 53 1010.4
20260506102533 44 155 2.0 10.0 0.00 0.03 0.00 50 1010.3
20260506102034 45 343 2.0 10.0 0.00 0.03 0.00 51 1010.2
20260506101541 44 151 2.0 8.0 0.00 0.03 0.00 51 1010.3
20260506101029 45 106 2.0 8.0 0.00 0.03 0.00 50 1010.2
20260506100533 44 135 3.0 8.0 0.00 0.03 0.00 53 1010.3
20260506100048 43 344 3.0 7.0 0.00 0.03 0.00 53 1010.4
20260506095530 43 125 2.0 7.0 0.00 0.04 0.00 53 1010.2
20260506095030 43 128 2.0 7.0 0.00 0.04 0.00 53 1010.2
20260506094543 43 2 1.0 7.0 0.00 0.04 0.00 55 1010.3
20260506094029 43 133 1.0 7.0 0.00 0.04 0.00 54 1010.2
20260506093533 43 159 2.0 5.0 0.00 0.04 0.00 54 1010.3
20260506093044 42 0 0.0 7.0 0.00 0.04 0.00 55 1010.3
20260506092530 42 137 1.0 7.0 0.00 0.04 0.00 54 1010.2
20260506092030 42 131 2.0 7.0 0.00 0.04 0.00 54 1010.1
20260506091541 43 78 0.0 11.0 0.00 0.04 0.00 56 1010.1
20260506091029 43 131 3.0 11.0 0.00 0.04 0.00 55 1010.2
20260506090532 44 148 2.0 10.0 0.00 0.04 0.00 54 1010.2
20260506090042 44 89 4.0 10.0 0.00 0.04 0.00 54 1010.3
20260506085532 43 140 2.0 7.0 0.00 0.05 0.00 55 1010.2
20260506085030 43 138 2.0 7.0 0.00 0.05 0.00 56 1010.2
20260506084612 43 105 2.0 6.0 0.00 0.05 0.00 59 1010.2
20260506084030 42 176 2.0 6.0 0.00 0.05 0.00 59 1010.2
20260506083530 41 158 1.0 9.0 0.00 0.05 0.00 60 1010.2
20260506083045 41 80 3.0 10.0 0.00 0.05 0.00 60 1010.2
20260506082530 41 229 3.0 12.0 0.00 0.05 0.00 61 1010.2
20260506082030 40 181 4.0 12.0 0.00 0.05 0.00 60 1010.2
20260506081554 41 138 3.0 7.0 0.00 0.05 0.00 59 1010.3
20260506081034 41 94 2.0 6.0 0.00 0.05 0.00 60 1010.2
20260506080530 40 113 1.0 5.0 0.00 0.05 0.00 61 1010.2
20260506073529 40 134 0.0 4.0 0.00 0.11 0.00 67 1010.2
20260506073044 39 141 1.0 4.0 0.00 0.11 0.00 65 1010.2
20260506072529 38 150 2.0 4.0 0.00 0.11 0.00 66 1010.2
20260506072031 37 0 1.0 3.0 0.00 0.11 0.00 68 1010.2
20260506071548 37 113 1.0 4.0 0.00 0.11 0.00 67 1010.2
20260506071031 37 158 1.0 4.0 0.00 0.11 0.00 68 1010.2
20260506070530 37 141 2.0 4.0 0.00 0.11 0.00 69 1010.2
20260506062030 36 119 2.0 6.0 0.00 0.13 0.00 71 1010.0
20260506061548 37 144 2.0 8.0 0.00 0.13 0.00 71 1010.0
20260506061030 36 103 3.0 9.0 0.00 0.13 0.00 72 1010.0
20260506060531 36 144 4.0 9.0 0.00 0.13 0.00 72 1009.9
20260506051029 33 170 1.0 6.0 0.00 0.13 0.00 82 1009.9
20260506050529 33 199 2.0 5.0 0.00 0.13 0.00 82 1009.8
20260506045029 33 150 1.0 6.0 0.00 0.13 0.00 83 1009.8
20260506044544 33 110 2.0 8.0 0.00 0.13 0.00 82 1009.8
20260506044029 33 146 2.0 8.0 0.00 0.13 0.00 82 1009.8
20260506043534 33 148 1.0 6.0 0.00 0.13 0.00 82 1009.8
20260506043045 33 139 2.0 7.0 0.00 0.13 0.00 82 1009.7
20260506042530 33 162 2.0 7.0 0.00 0.13 0.00 81 1009.7
20260506042030 33 0 2.0 7.0 0.00 0.13 0.00 81 1009.8
20260506041545 33 154 2.0 7.0 0.00 0.13 0.00 82 1009.8
20260506041029 33 134 2.0 6.0 0.00 0.13 0.00 82 1009.8
20260506040533 33 148 1.0 6.0 0.00 0.13 0.00 82 1009.8
20260506040042 33 156 1.0 6.0 0.00 0.13 0.00 81 1009.7
20260506035530 33 132 2.0 7.0 0.00 0.13 0.00 81 1009.8
20260506035029 33 147 1.0 7.0 0.00 0.13 0.00 82 1009.7
20260506034548 32 207 1.0 7.0 0.00 0.13 0.00 83 1009.7
20260506034030 31 172 1.0 4.0 0.00 0.13 0.00 84 1009.7
20260506033533 31 136 0.0 4.0 0.00 0.13 0.00 84 1009.6
20260506033043 31 134 1.0 4.0 0.00 0.13 0.00 85 1009.6
20260506032530 30 137 0.0 4.0 0.00 0.13 0.00 85 1009.6
20260506032030 31 149 1.0 5.0 0.00 0.13 0.00 85 1009.5
20260506031543 31 177 1.0 5.0 0.00 0.13 0.00 85 1009.6
20260506031032 31 0 1.0 5.0 0.00 0.13 0.00 85 1009.6
20260506030535 31 137 2.0 5.0 0.00 0.13 0.00 85 1009.5
20260506030043 30 255 1.0 5.0 0.00 0.13 0.00 85 1009.7
20260506025531 30 143 0.0 3.0 0.00 0.13 0.00 85 1009.6
20260506025031 30 243 0.0 3.0 0.00 0.13 0.00 85 1009.7
20260506024541 30 127 0.0 8.0 0.00 0.13 0.00 85 1009.6
20260506024029 31 159 0.0 8.0 0.00 0.13 0.00 85 1009.6
20260506023531 31 155 1.0 8.0 0.00 0.13 0.00 85 1009.6
20260506023059 31 0 1.0 4.0 0.00 0.13 0.00 85 1009.6
20260506022530 31 115 0.0 4.0 0.00 0.13 0.00 85 1009.6
20260506022030 30 0 0.0 4.0 0.00 0.13 0.00 85 1009.6
20260506021606 30 316 0.0 6.0 0.00 0.13 0.00 86 1009.7
20260506021035 30 0 1.0 6.0 0.00 0.13 0.00 86 1009.5
20260506020529 30 0 1.0 3.0 0.00 0.13 0.00 86 1009.6
20260506020039 30 288 1.0 3.0 0.00 0.13 0.00 86 1009.7
20260506015532 30 117 0.0 4.0 0.00 0.13 0.00 86 1009.6
20260506015036 30 143 0.0 4.0 0.00 0.13 0.00 85 1009.6
20260506014541 30 0 0.0 3.0 0.00 0.13 0.00 85 1009.6
20260506014029 30 331 0.0 3.0 0.00 0.13 0.00 84 1009.6
20260506013531 30 141 1.0 4.0 0.00 0.13 0.00 84 1009.6
20260506013044 31 160 1.0 5.0 0.00 0.13 0.00 84 1009.6
20260506012531 31 169 1.0 5.0 0.00 0.13 0.00 84 1009.6
20260506012029 31 150 1.0 4.0 0.00 0.13 0.00 84 1009.5
20260506011555 31 185 1.0 6.0 0.00 0.13 0.00 84 1009.6
20260506011030 31 97 2.0 6.0 0.00 0.13 0.00 84 1009.5
20260506010532 30 87 1.0 6.0 0.00 0.13 0.00 84 1009.6
20260506010046 30 137 1.0 6.0 0.00 0.13 0.00 84 1009.5
20260506005531 30 143 1.0 4.0 0.00 0.13 0.00 85 1009.6
20260506005032 30 134 1.0 4.0 0.00 0.13 0.00 85 1009.5
20260506004547 30 148 1.0 4.0 0.00 0.13 0.00 85 1009.5
20260506004031 30 224 1.0 3.0 0.00 0.13 0.00 86 1009.5
20260506003532 30 160 0.0 2.0 0.00 0.13 0.00 86 1009.5
20260506003048 30 0 0.0 2.0 0.00 0.13 0.00 86 1009.5
20260506002532 30 0 1.0 4.0 0.00 0.13 0.00 86 1009.6
20260506002033 30 126 0.0 4.0 0.00 0.13 0.00 85 1009.7
20260506001549 30 0 0.0 4.0 0.00 0.13 0.00 85 1009.6
20260506001031 30 0 0.0 2.0 0.00 0.13 0.00 85 1009.6
20260506000532 30 125 1.0 3.0 0.00 0.13 0.00 85 1009.6
20260506000048 30 131 0.0 4.0 0.00 0.13 0.00 86 1009.5
20260505235530 30 144 0.0 4.0 0.00 0.13 0.00 86 1009.7
20260505235030 31 161 1.0 5.0 0.00 0.13 0.00 86 1009.6
20260505234543 31 159 0.0 5.0 0.00 0.13 0.00 86 1009.5
20260505234031 30 327 0.0 4.0 0.00 0.13 0.00 86 1009.5
20260505233531 30 282 0.0 4.0 0.00 0.13 0.00 86 1009.3
20260505233044 30 236 0.0 5.0 0.00 0.13 0.00 86 1009.3
20260505232532 30 150 0.0 5.0 0.00 0.13 0.00 86 1009.3
20260505232031 30 110 1.0 5.0 0.00 0.13 0.00 87 1009.4
20260505231603 30 165 0.0 7.0 0.00 0.13 0.00 86 1009.3
20260505231030 30 0 0.0 7.0 0.00 0.13 0.00 86 1009.3
20260505230530 30 162 0.0 3.0 0.00 0.13 0.00 85 1009.3
20260505230044 30 172 0.0 3.0 0.00 0.13 0.00 85 1009.3
20260505225531 30 114 0.0 3.0 0.00 0.13 0.00 85 1009.4
20260505225030 31 0 1.0 3.0 0.00 0.13 0.00 85 1009.4
20260505224543 31 0 0.0 4.0 0.00 0.13 0.00 85 1009.3
20260505224031 31 134 0.0 4.0 0.00 0.13 0.00 85 1009.4
20260505223531 31 240 1.0 4.0 0.00 0.13 0.00 85 1009.4
20260505223041 31 242 0.0 4.0 0.00 0.13 0.00 84 1009.4
20260505222530 31 0 1.0 4.0 0.00 0.13 0.00 85 1009.4
20260505222031 31 139 1.0 5.0 0.00 0.13 0.00 85 1009.5
20260505221548 31 0 0.0 5.0 0.00 0.13 0.00 85 1009.5
20260505221030 31 0 1.0 4.0 0.00 0.13 0.00 85 1009.4
20260505220531 31 167 0.0 4.0 0.00 0.13 0.00 85 1009.5
20260505220051 31 0 1.0 4.0 0.00 0.13 0.00 85 1009.5
20260505215531 31 146 0.0 3.0 0.00 0.13 0.13 85 1009.4
20260505215031 31 145 0.0 3.0 0.00 0.13 0.13 85 1009.5
20260505214554 31 146 0.0 3.0 0.00 0.13 0.13 86 1009.5
20260505214030 31 147 0.0 3.0 0.00 0.13 0.13 86 1009.5
20260505213530 31 0 0.0 6.0 0.00 0.13 0.13 86 1009.4
20260505213049 31 0 1.0 6.0 0.00 0.13 0.13 86 1009.2
20260505212531 31 0 0.0 2.0 0.00 0.13 0.13 86 1009.2
20260505212033 31 128 0.0 2.0 0.00 0.13 0.13 86 1009.2
20260505211545 31 0 0.0 3.0 0.00 0.13 0.13 85 1009.2
20260505211030 31 0 0.0 3.0 0.00 0.13 0.13 85 1009.2
20260505210532 32 0 0.0 3.0 0.00 0.13 0.13 85 1009.3
20260505210046 32 0 0.0 4.0 0.00 0.13 0.13 84 1009.3
20260505205531 32 0 0.0 4.0 0.00 0.13 0.13 84 1009.1
20260505205029 32 246 0.0 3.0 0.00 0.13 0.13 84 1009.1
20260505204544 32 0 0.0 3.0 0.00 0.13 0.13 84 1009.1
20260505204032 32 0 0.0 1.0 0.00 0.13 0.13 84 1009.1
20260505203532 32 0 0.0 1.0 0.00 0.13 0.13 84 1009.1
20260505203101 32 134 0.0 2.0 0.00 0.13 0.13 83 1009.1
20260505202532 32 0 0.0 2.0 0.00 0.13 0.13 83 1009.1
20260505202030 32 0 0.0 2.0 0.00 0.13 0.13 83 1009.0
20260505201547 32 0 0.0 1.0 0.00 0.13 0.13 83 1009.1
20260505201034 33 0 0.0 2.0 0.00 0.13 0.13 83 1009.1
20260505200532 33 0 0.0 2.0 0.00 0.13 0.13 83 1009.0
20260505200049 33 0 0.0 2.0 0.00 0.13 0.13 83 1009.0
20260505195530 33 0 0.0 3.0 0.00 0.13 0.13 82 1009.1
20260505195030 33 0 0.0 3.0 0.00 0.13 0.13 82 1009.0
20260505194543 33 144 0.0 2.0 0.00 0.13 0.13 82 1009.1
20260505194031 33 0 0.0 2.0 0.00 0.13 0.13 83 1009.0
20260505193530 33 300 0.0 2.0 0.00 0.13 0.13 84 1008.9
20260505193038 34 0 0.0 3.0 0.00 0.13 0.13 84 1008.9
20260505192530 34 0 0.0 6.0 0.00 0.13 0.13 83 1008.8
20260505192030 34 134 1.0 6.0 0.00 0.13 0.13 83 1008.8
20260505191541 34 344 1.0 5.0 0.00 0.13 0.13 82 1008.9
20260505191030 34 104 1.0 5.0 0.00 0.13 0.13 82 1008.8
20260505190530 34 160 0.0 5.0 0.00 0.13 0.13 82 1008.8
20260505190046 34 101 2.0 5.0 0.00 0.13 0.13 83 1008.7
20260505185530 34 122 1.0 4.0 0.00 0.13 0.13 83 1008.6
20260505185031 34 0 0.0 4.0 0.00 0.13 0.13 84 1008.7
20260505184543 35 36 1.0 7.0 0.00 0.13 0.13 84 1008.7
20260505184034 35 62 1.0 7.0 0.00 0.13 0.13 84 1008.8
20260505183530 35 94 2.0 5.0 0.00 0.13 0.13 84 1008.8
20260505183043 35 32 0.0 3.0 0.00 0.13 0.13 85 1008.8
20260505182529 35 150 0.0 3.0 0.00 0.13 0.13 84 1008.8
20260505182030 35 0 0.0 6.0 0.00 0.13 0.13 84 1008.9
20260505181544 35 59 1.0 6.0 0.00 0.13 0.13 83 1008.9
20260505181031 35 0 0.0 4.0 0.00 0.13 0.13 82 1008.8
20260505180532 35 0 0.0 6.0 0.00 0.13 0.13 81 1008.7
20260505180040 35 0 0.0 6.0 0.00 0.13 0.13 80 1008.6
20260505175531 35 0 0.0 3.0 0.00 0.13 0.13 80 1008.6
20260505175030 35 0 0.0 2.0 0.00 0.13 0.13 79 1008.7
20260505174545 35 0 0.0 2.0 0.00 0.13 0.13 79 1008.6
20260505174031 35 0 0.0 4.0 0.00 0.13 0.13 78 1008.7
20260505173531 35 0 1.0 4.0 0.00 0.13 0.13 78 1008.7
20260505173043 36 141 1.0 5.0 0.00 0.13 0.13 77 1008.6
20260505172530 36 0 2.0 6.0 0.00 0.13 0.13 77 1008.5
20260505172031 36 0 0.0 6.0 0.00 0.13 0.13 77 1008.5
20260505171544 36 0 1.0 4.0 0.00 0.13 0.13 77 1008.4
20260505171031 36 110 1.0 7.0 0.01 0.13 0.13 77 1008.3
20260505170530 36 0 1.0 7.0 0.01 0.13 0.13 78 1008.4
20260505165530 36 224 0.0 3.0 0.01 0.13 0.13 80 1008.2
20260505165030 36 356 0.0 5.0 0.01 0.13 0.13 78 1008.2
20260505164544 36 0 0.0 7.0 0.01 0.13 0.13 78 1008.4
20260505164030 36 131 1.0 7.0 0.01 0.13 0.13 78 1008.2
20260505163531 36 143 2.0 6.0 0.01 0.13 0.13 78 1008.2
20260505163043 36 0 1.0 6.0 0.01 0.13 0.13 78 1008.3
20260505162533 36 0 1.0 6.0 0.01 0.13 0.13 78 1008.3
20260505162030 36 342 1.0 8.0 0.01 0.13 0.13 79 1008.2
20260505161540 37 41 2.0 8.0 0.01 0.13 0.13 80 1008.3
20260505161030 36 257 1.0 5.0 0.00 0.12 0.12 81 1008.3
20260505160529 36 319 0.0 5.0 0.00 0.12 0.12 81 1008.2
20260505153047 34 103 4.0 10.0 0.00 0.12 0.12 84 1008.4
20260505152532 35 127 4.0 10.0 0.00 0.12 0.12 83 1008.2
20260505152030 36 6 2.0 9.0 0.00 0.12 0.12 81 1008.1
20260505151557 37 13 3.0 9.0 0.00 0.12 0.12 78 1008.3
20260505151031 38 345 0.0 4.0 0.01 0.12 0.12 78 1008.3
20260505150531 38 152 0.0 4.0 0.01 0.12 0.12 79 1008.3
20260505140531 37 3 2.0 8.0 0.00 0.11 0.11 76 1007.9